Voltar ao catálogo

STARLINK-32618

AtivoComunicaçõesVLEO
NORAD 62045·PAYLOAD·🇺🇸 United States

Lançado Nov 21, 2024 de Cape Canaveral Space Force Station

Loading…

Próximas Passagens (próximas 24 horas)

TLE

AtualizadoSource: CelesTrak SupGP

Época: Sep 14, 2026, 21:19 UTC

1 62045C 24216P   26257.88868056  .00020529  00000+0  74382-3 0  2574
2 62045  42.9997 267.9699 0001497 267.2181 300.6212 15.27557144    11

Acompanhe STARLINK-32618 em tempo real com AllMySat

Download on the App Store